Weather History for Taos, NM

Change the Weather History Date:

Thursday, September 26, 2013

  Actual Average Record
Temperature  
Mean Temperature 58 °F -  
Max Temperature 71 °F 70 °F 82 °F (2005)
Min Temperature 44 °F 36 °F 26 °F (2000)
Degree Days  
Heating Degree Days 8    
Growing Degree Days 8 (Base 50)    
Moisture  
Dew Point 31 °F    
Average Humidity 36    
Maximum Humidity 66    
Minimum Humidity 17    
Precipitation  
Precipitation 0.00 in - - ()
Sea Level Pressure  
Sea Level Pressure 29.98 in    
Wind  
Wind Speed 7 mph (SSW)    
Max Wind Speed 24 mph    
Max Gust Speed 29 mph    
Visibility 10 miles    
Events      
Averages and records for this station are not official NWS values.
T = Trace of Precipitation, MM = Missing Value Source: NWS Daily Summary

Daily Weather History Graph

Daily Weather History Graph

Search for Another Location

Airport:

Trip Planner

Search our weather history database for the weather conditions in past years. The results will help you decide how hot, cold, wet, or windy it might be!

Date:

Astronomy

Sep. 26, 2013 Rise Set
Actual Time 6:54 AM MDT 6:53 PM MDT
Civil Twilight 6:28 AM MDT 7:18 PM MDT
Nautical Twilight 5:58 AM MDT 7:48 PM MDT
Astronomical Twilight 5:28 AM MDT 8:18 PM MDT
Moon No Moon Rise 1:39 PM MDT (9/26)
Length of Visible Light 12h 50m
Length of Day
11h 59m
Waning Gibbous, 54% of the Moon is Illuminated
Sep 26
Waning Gibbous
Sep 26
Last Quarter
Oct 4
New
Oct 11
First Quarter
Oct 18
Full

Hourly Weather History & Observations

Time (MDT) Temp. Windchill Dew Point Humidity Pressure Visibility Wind Dir Wind Speed Gust Speed Precip Events Conditions
12:15 AM 57.2 °F - 37.4 °F 48% 29.96 in 10.0 mi NNW 6.9 mph - N/A   Clear
12:35 AM 59.0 °F - 37.4 °F 45% 29.97 in 10.0 mi Calm Calm - N/A   Clear
12:55 AM 57.2 °F - 37.4 °F 48% 29.97 in 10.0 mi SW 8.1 mph - N/A   Clear
1:15 AM 55.4 °F - 35.6 °F 47% 29.97 in 10.0 mi North 3.5 mph - N/A   Clear
1:35 AM 55.4 °F - 35.6 °F 47% 29.97 in 10.0 mi NNW 3.5 mph - N/A   Clear
1:55 AM 55.4 °F - 33.8 °F 44% 29.98 in 10.0 mi Calm Calm - N/A   Clear
2:15 AM 51.8 °F - 33.8 °F 50% 29.98 in 10.0 mi Calm Calm - N/A   Clear
2:35 AM 48.2 °F - 35.6 °F 62% 29.98 in 10.0 mi SSE 3.5 mph - N/A   Clear
2:55 AM 55.4 °F - 32.0 °F 41% 29.98 in 10.0 mi Calm Calm - N/A   Clear
3:15 AM 50.0 °F - 33.8 °F 54% 29.98 in 10.0 mi ENE 3.5 mph - N/A   Clear
3:35 AM 50.0 °F - 33.8 °F 54% 29.98 in 10.0 mi Calm Calm - N/A   Clear
3:55 AM 44.6 °F 43.1 °F 33.8 °F 66% 29.98 in 10.0 mi East 3.5 mph - N/A   Clear
4:15 AM 46.4 °F - 33.8 °F 62% 29.98 in 10.0 mi Calm Calm - N/A   Clear
4:35 AM 44.6 °F - 33.8 °F 66% 29.98 in 10.0 mi Calm Calm - N/A   Clear
4:55 AM 50.0 °F - 30.2 °F 47% 29.98 in 10.0 mi Calm Calm - N/A   Clear
5:15 AM 48.2 °F - 32.0 °F 54% 29.98 in 10.0 mi Calm Calm - N/A   Clear
5:35 AM 46.4 °F - 32.0 °F 57% 29.99 in 10.0 mi Calm Calm - N/A   Clear
5:55 AM 50.0 °F - 28.4 °F 43% 29.99 in 10.0 mi Calm Calm - N/A   Clear
6:15 AM 50.0 °F - 28.4 °F 43% 30.00 in 10.0 mi South 5.8 mph - N/A   Clear
6:35 AM 53.6 °F - 26.6 °F 35% 30.01 in 10.0 mi SSW 4.6 mph - N/A   Clear
6:55 AM 51.8 °F - 26.6 °F 38% 30.00 in 10.0 mi Calm Calm - N/A   Clear
7:15 AM 44.6 °F 43.1 °F 32.0 °F 61% 30.01 in 10.0 mi ENE 3.5 mph - N/A   Clear
7:35 AM 44.6 °F 42.2 °F 33.8 °F 66% 30.02 in 10.0 mi East 4.6 mph - N/A   Clear
7:55 AM 48.2 °F - 37.4 °F 66% 30.02 in 10.0 mi East 3.5 mph - N/A   Clear
8:15 AM 53.6 °F - 35.6 °F 51% 30.02 in 10.0 mi Calm Calm - N/A   Clear
8:35 AM 55.4 °F - 35.6 °F 47% 30.03 in 10.0 mi SSW 4.6 mph - N/A   Clear
8:55 AM 57.2 °F - 33.8 °F 41% 30.03 in 10.0 mi SW 4.6 mph - N/A   Clear
9:15 AM 59.0 °F - 30.2 °F 34% 30.03 in 10.0 mi Calm Calm - N/A   Clear
9:35 AM 60.8 °F - 30.2 °F 31% 30.04 in 10.0 mi South 3.5 mph - N/A   Clear
9:55 AM 62.6 °F - 30.2 °F 30% 30.03 in 10.0 mi SSW 3.5 mph - N/A   Clear
10:15 AM 62.6 °F - 30.2 °F 30% 30.03 in 10.0 mi SW 10.4 mph - N/A   Clear
10:35 AM 64.4 °F - 32.0 °F 30% 30.03 in 10.0 mi SW 9.2 mph - N/A   Clear
10:55 AM 64.4 °F - 30.2 °F 28% 30.03 in 10.0 mi SW 19.6 mph 23.0 mph N/A   Clear
11:15 AM 66.2 °F - 28.4 °F 24% 30.03 in 10.0 mi SW 16.1 mph - N/A   Clear
11:35 AM 66.2 °F - 26.6 °F 23% 30.02 in 10.0 mi SW 17.3 mph 24.2 mph N/A   Clear
11:55 AM 68.0 °F - 26.6 °F 21% 30.02 in 10.0 mi SSW 21.9 mph - N/A   Clear
12:15 PM 68.0 °F - 26.6 °F 21% 30.01 in 10.0 mi SW 20.7 mph 25.3 mph N/A   Clear
12:35 PM 69.8 °F - 24.8 °F 18% 30.01 in 10.0 mi SW 19.6 mph 28.8 mph N/A   Clear
12:55 PM 69.8 °F - 24.8 °F 18% 30.00 in 10.0 mi SW 16.1 mph - N/A   Clear
1:15 PM 69.8 °F - 23.0 °F 17% 30.00 in 10.0 mi SSW 17.3 mph 21.9 mph N/A   Clear
1:35 PM 69.8 °F - 24.8 °F 18% 29.99 in 10.0 mi SW 15.0 mph 18.4 mph N/A   Clear
1:55 PM 69.8 °F - 24.8 °F 18% 29.98 in 10.0 mi SSW 16.1 mph 21.9 mph N/A   Clear
2:15 PM 69.8 °F - 24.8 °F 18% 29.97 in 10.0 mi SSW 10.4 mph 19.6 mph N/A   Clear
2:35 PM 71.6 °F - 24.8 °F 17% 29.97 in 10.0 mi SSW 12.7 mph 25.3 mph N/A   Clear
2:55 PM 71.6 °F - 24.8 °F 17% 29.96 in 10.0 mi South 15.0 mph 19.6 mph N/A   Clear
3:15 PM 71.6 °F - 26.6 °F 19% 29.95 in 10.0 mi SW 20.7 mph 24.2 mph N/A   Clear
3:35 PM 71.6 °F - 26.6 °F 19% 29.95 in 10.0 mi SSW 16.1 mph 24.2 mph N/A   Clear
3:55 PM 71.6 °F - 28.4 °F 20% 29.95 in 10.0 mi SSW 20.7 mph 27.6 mph N/A   Clear
4:15 PM 71.6 °F - 28.4 °F 20% 29.95 in 10.0 mi SSW 17.3 mph 24.2 mph N/A   Clear
4:35 PM 71.6 °F - 30.2 °F 22% 29.95 in 10.0 mi SW 18.4 mph 26.5 mph N/A   Clear
4:55 PM 71.6 °F - 26.6 °F 19% 29.95 in 10.0 mi SSW 19.6 mph 26.5 mph N/A   Clear
5:15 PM 71.6 °F - 28.4 °F 20% 29.95 in 10.0 mi SSW 15.0 mph - N/A   Clear
5:35 PM 71.6 °F - 26.6 °F 19% 29.94 in 10.0 mi SW 24.2 mph 28.8 mph N/A   Clear
5:55 PM 69.8 °F - 26.6 °F 20% 29.94 in 10.0 mi SSW 15.0 mph - N/A   Clear
6:15 PM 69.8 °F - 26.6 °F 20% 29.94 in 10.0 mi SSW 19.6 mph 27.6 mph N/A   Clear
6:35 PM 68.0 °F - 26.6 °F 21% 29.94 in 10.0 mi SW 16.1 mph 24.2 mph N/A   Clear
6:55 PM 66.2 °F - 28.4 °F 24% 29.94 in 10.0 mi SSW 10.4 mph - N/A   Clear
7:15 PM 64.4 °F - 28.4 °F 26% 29.94 in 10.0 mi SSW 8.1 mph - N/A   Clear
7:35 PM 62.6 °F - 30.2 °F 30% 29.93 in 10.0 mi SSW 8.1 mph - N/A   Scattered Clouds
7:55 PM 62.6 °F - 32.0 °F 32% 29.94 in 10.0 mi SSE 6.9 mph - N/A   Mostly Cloudy
8:15 PM 59.0 °F - 33.8 °F 39% 29.95 in 10.0 mi SSE 8.1 mph - N/A   Scattered Clouds
8:35 PM 60.8 °F - 33.8 °F 36% 29.95 in 10.0 mi SSE 6.9 mph - N/A   Scattered Clouds
8:55 PM 59.0 °F - 35.6 °F 42% 29.96 in 10.0 mi SE 9.2 mph - N/A   Mostly Cloudy
9:15 PM 60.8 °F - 35.6 °F 39% 29.97 in 10.0 mi SSE 9.2 mph - N/A   Mostly Cloudy
9:35 PM 60.8 °F - 35.6 °F 39% 29.97 in 10.0 mi South 10.4 mph - N/A   Mostly Cloudy
9:55 PM 62.6 °F - 37.4 °F 39% 29.98 in 10.0 mi SSW 12.7 mph 17.3 mph N/A   Mostly Cloudy
10:15 PM 62.6 °F - 35.6 °F 37% 29.98 in 10.0 mi SSW 17.3 mph 24.2 mph N/A   Mostly Cloudy
10:35 PM 62.6 °F - 33.8 °F 34% 29.99 in 10.0 mi SSW 15.0 mph - N/A   Mostly Cloudy
10:55 PM 62.6 °F - 33.8 °F 34% 29.99 in 10.0 mi SSW 16.1 mph 20.7 mph N/A   Partly Cloudy
11:15 PM 60.8 °F - 33.8 °F 36% 30.00 in 10.0 mi SW 12.7 mph - N/A   Partly Cloudy
11:35 PM 59.0 °F - 33.8 °F 39% 30.01 in 10.0 mi South 8.1 mph - N/A   Mostly Cloudy
11:55 PM 59.0 °F - 33.8 °F 39% 30.01 in 10.0 mi South 6.9 mph - N/A   Overcast